This is the latest recevied weather packets stored in our database for station/object JE6MIQ-13. If no packets are shown the sender has not sent any weather packets the latest 10 day(s).
| Time | Temp. | Humidity | Pressure | Rain* | Wind** | Luminosity | Snow |
|---|---|---|---|---|---|---|---|
| 1777475089 | 12.78° C | 71% | 1018.3 hPa | 0 mm | - | - | - |
| 1777474489 | 12.78° C | 70% | 1018.3 hPa | 0 mm | - | - | - |
| 1777473888 | 12.78° C | 69% | 1018.3 hPa | 0 mm | - | - | - |
| 1777473288 | 12.78° C | 69% | 1018.5 hPa | 0 mm | - | - | - |
| 1777472689 | 13.33° C | 70% | 1018.5 hPa | 0 mm | - | - | - |
| 1777472089 | 13.33° C | 71% | 1018.5 hPa | 0 mm | - | - | - |
| 1777471489 | 13.33° C | 71% | 1018.7 hPa | 0 mm | - | - | - |
| 1777470890 | 13.33° C | 71% | 1018.8 hPa | 0 mm | - | - | - |
| 1777470289 | 13.33° C | 71% | 1018.8 hPa | 0 mm | - | - | - |
| 1777469689 | 13.33° C | 70% | 1018.9 hPa | 0 mm | - | - | - |
| 1777469088 | 13.33° C | 69% | 1018.8 hPa | 0 mm | - | - | - |
| 1777468489 | 13.33° C | 69% | 1018.8 hPa | 1.02 mm | - | - | - |
| 1777467889 | 13.89° C | 68% | 1018.9 hPa | 1.02 mm | - | - | - |
| 1777467289 | 13.89° C | 67% | 1018.8 hPa | 1.02 mm | - | - | - |
| 1777466688 | 13.89° C | 66% | 1018.8 hPa | 1.02 mm | - | - | - |
| 1777466089 | 13.89° C | 65% | 1018.6 hPa | 1.02 mm | - | - | - |
| 1777465489 | 13.89° C | 62% | 1018.6 hPa | 1.02 mm | - | - | - |
| 1777464887 | 13.89° C | 58% | 1018.7 hPa | 0 mm | - | - | - |
| 1777464288 | 13.89° C | 56% | 1018.7 hPa | 0 mm | - | - | - |
| 1777463687 | 13.89° C | 53% | 1018.4 hPa | 0 mm | - | - | - |
| 1777463087 | 14.44° C | 47% | 1018.4 hPa | 0 mm | - | - | - |
| 1777462487 | 15° C | 37% | 1018.3 hPa | 0 mm | - | - | - |
| 1777461887 | 15° C | 37% | 1018.1 hPa | 0 mm | - | - | - |
| 1777461288 | 15° C | 37% | 1018.1 hPa | 0 mm | - | - | - |
| 1777460687 | 15° C | 36% | 1017.8 hPa | 0 mm | - | - | - |
* Rain latest hour (hover to see other rain measurements)
** Current wind speed in m/s (hover to see current wind gust speed)